CAPE
7 5 19 9 0 0 0 0 0 0 0 0 0 0 0 0 0 0 0 0 0 0 0 0 0 0 0 0 0 0 0 0 0 0 0 0 0 0 0 0 0 0 0 0 0 0 0 0 0 0 0 0 0 0
3 17 25 4 0 0 0 0 0 0 0 0 0 0 0 0 0 0 0 0 0 0 0 0 0 0 0 0 0 0 0 0 0 0 0 0 0 0 0 0 0 0 0 0 0 0 0 0 0 0 0 0 0 0
24 21 10 1 0 3 0 0 0 0 0 0 0 0 0 0 0 0 0 0 0 0 0 0 0 0 0 0 0 0 0 0 0 0 0 0 0 0 0 0 0 0 0 0 0 0 0 0 0 0 0 0 0 0
14 7 0 0 0 0 0 0 0 0 0 0 0 0 0 0 0 0 0 0 0 0 0 0 0 0 0 0 0 0 0 0 0 0 0 0 0 0 0 0 0 0 0 0 0 0 0 0 0 0 0 0 0 0
5 0 0 0 0 0 0 0 0 0 0 0 0 0 0 0 0 0 0 0 0 0 0 0 0 0 0 0 0 0 0 0 0 0 0 0 0 0 0 0 0 0 0 0 0 0 0 0 0 0 0 0 0 0
0 0 0 0 0 0 0 0 0 0 0 0 0 0 0 0 0 0 0 0 0 0 0 0 0 0 0 0 0 0 0 0 0 0 0 0 0 0 0 0 0 0 0 0 0 0 0 0 6 2 3 0 0 0
0 0 0 0 0 0 0 0 0 0 0 0 0 0 0 0 0 0 0 0 0 0 0 0 0 0 0 0 0 0 0 0 2 0 0 1 1 0 1 0 0 0 0 0 1 3 0 2 3 2 3 1 0 0
0 0 0 0 0 0 1 4 1 0 0 0 0 0 0 0 0 0 0 0 0 0 0 0 0 0 0 0 0 0 0 1 0 7 3 2 3 7 1 0 0 0 0 0 2 5 3 3 0 1 2 1 2 2
0 0 0 0 0 0 0 8 8 2 0 0 0 0 0 0 2 0 0 0 0 0 0 0 0 0 0 0 1 0 2 0 0 6 9 1 4 1 0 0 1 1 0 0 4 2 3 2 1 0 0 0 1 4
1 0 0 0 0 0 0 14 0 0 0 0 0 0 0 3 0 0 0 0 0 0 0 0 0 0 1 0 1 0 0 2 3 3 2 4 0 0 1 2 2 4 2 4 4 1 0 0 0 0 1 1 1 3
0 0 0 0 0 0 9 1 0 0 0 0 0 1 3 0 0 0 0 0 0 0 0 0 0 0 0 0 1 0 2 1 2 1 4 2 0 1 2 1 3 2 3 3 4 4 5 7 9 5 1 0 0 1
0 0 4 6 1 19 7 0 0 0 0 0 0 1 0 0 0 0 0 0 0 0 0 0 0 0 0 0 1 0 0 0 1 0 3 2 0 0 2 6 3 0 0 0 0 0 0 0 0 0 0 0 0 0
8 21 17 14 17 6 0 0 0 0 0 0 0 0 0 0 0 0 0 0 0 0 0 0 0 0 0 0 0 0 1 3 2 5 3 2 5 5 5 2 0 0 0 0 0 0 0 0 0 0 0 0 0 0
16 15 14 3 0 0 0 0 0 0 0 0 0 0 0 0 0 0 0 0 5 6 5 5 1 2 0 0 0 0 0 0 3 1 5 5 1 1 1 0 0 0 0 0 0 0 0 0 0 0 0 0 0 0
15 9 1 0 0 0 0 0 0 0 0 0 0 0 0 1 3 4 0 0 0 0 0 0 0 0 1 0 1 1 2 2 4 9 4 5 1 0 2 3 0 0 0 0 0 0 0 0 0 0 0 0 0 0
10 3 4 4 0 0 0 0 0 0 0 0 0 1 2 2 2 0 0 0 0 0 0 0 0 0 0 0 0 0 1 4 2 4 1 1 0 0 0 0 3 6 5 2 3 0 0 0 0 0 0 0 0 0
1 3 5 0 0 0 0 0 0 0 0 0 0 1 0 1 2 0 0 0 0 0 0 0 0 0 1 2 1 7 3 3 4 5 0 0 0 0 0 1 2 0 0 1 12 0 0 0 0 0 0 0 0 0
1 0 0 0 0 0 0 0 0 0 0 0 0 0 0 0 0 0 0 0 0 0 0 0 0 0 0 0 6 2 5 3 1 0 0 0 0 0 0 0 0 0 0 8 0 0 0 0 0 0 0 0 0 0
0 0 0 0 0 0 0 0 0 0 0 0 0 0 0 0 0 0 0 0 0 0 0 0 0 0 0 0 0 0 0 0 0 0 0 0 0 0 0 0 0 0 4 4 5 0 0 0 0 0 0 1 3 1
0 0 0 0 0 0 0 0 0 0 0 0 0 0 0 0 0 0 0 0 0 0 0 0 0 0 0 0 0 0 0 0 0 0 0 0 0 0 0 0 0 0 14 30 1 0 0 0 0 0 0 1 4 5
0 0 0 0 0 0 0 0 0 0 0 0 0 0 0 0 0 0 0 0 0 0 0 0 0 0 0 0 0 0 0 0 0 0 0 0 0 0 0 0 0 5 16 18 0 0 0 0 0 0 2 4 3 2
0 0 0 0 0 0 0 0 0 0 0 0 0 0 0 0 0 0 0 0 0 0 0 0 0 0 0 0 0 0 0 0 0 0 0 0 0 0 0 0 0 0 4 5 0 0 0 0 0 0 0 4 3 2
0 0 0 0 0 0 0 0 0 0 0 0 0 0 0 0 0 0 0 0 0 0 0 0 0 0 0 0 0 0 0 0 0 0 0 0 0 0 0 0 0 0 0 0 1 0 0 0 0 2 1 2 2 2
0 0 0 0 0 0 0 0 0 0 0 0 0 0 0 0 0 0 0 0 0 0 0 0 0 0 0 0 0 0 0 0 0 0 0 0 0 0 0 0 0 0 0 0 0 0 0 0 1 0 1 2 2 0
0 0 0 0 0 0 0 0 0 0 0 0 0 0 0 0 0 0 0 0 0 0 0 0 0 0 0 0 0 0 0 0 0 0 0 0 0 0 0 1 0 0 2 0 0 2 0 1 1 1 1 1 0 0
0 0 0 0 0 0 0 0 0 0 0 0 0 0 0 0 0 0 0 0 0 0 0 0 0 0 0 0 0 0 0 0 0 0 0 0 0 2 2 2 2 0 3 1 0 2 0 0 1 1 0 0 0 0
0 0 0 0 0 0 0 0 0 0 0 0 0 0 0 0 0 0 0 0 0 0 0 0 0 0 0 0 0 0 0 0 0 0 0 0 0 0 1 3 1 0 2 3 1 0 1 1 1 1 1 0 0 0
0 0 0 0 0 0 0 0 0 0 0 0 0 0 0 0 0 0 0 0 0 0 0 0 0 0 0 0 0 0 0 0 0 0 0 0 0 0 1 2 3 1 2 1 3 2 1 1 1 0 1 0 0 0
0 0 0 0 0 0 0 0 0 0 0 0 0 0 0 0 0 0 0 0 0 0 0 0 0 0 0 0 0 0 0 0 0 0 0 0 0 0 1 1 1 1 2 2 0 1 1 1 1 1 0 0 0 0
0 0 0 0 0 0 0 0 0 0 0 0 0 0 0 0 0 0 0 0 0 0 0 0 0 0 0 0 0 0 0 0 0 0 0 0 0 0 0 1 0 1 1 2 1 2 1 0 0 0 0 0 0 0
0 0 0 0 0 0 0 0 0 0 0 0 0 0 0 0 0 0 0 0 0 0 0 0 0 0 0 0 0 0 0 0 0 0 1 2 2 0 0 0 1 1 1 1 1 1 0 0 0 0 0 0 0 0
0 0 0 0 0 0 0 0 0 0 0 0 0 0 0 0 0 0 0 0 0 0 0 0 0 0 0 0 0 0 0 0 0 1 0 1 1 1 0 0 0 1 0 0 0 0 0 0 0 0 0 0 0 0
0 0 0 0 0 0 0 0 0 0 0 0 0 0 0 0 0 0 0 0 0 0 0 0 0 0 0 0 0 0 0 0 0 0 0 0 0 0 0 1 1 1 0 0 0 0 0 0 0 0 0 0 0 0
CIN
-0 -0 -0 -3 -2 -0 -0 -0 -0 -0 -0 -0 -0 -0 -0 -0 -0 -0 -0 -0 -0 -0 -0 -0 -0 -0 -0 -0 -0 -0 -0 -0 -0 -0 -0 -0 -0 -0 -0 -0 -0 -0 -0 -0 -0 -0 -0 -0 -0 -0 -0 -0 -0 -0
-0 -0 -0 -6 -1 -0 -0 -0 -0 -0 -0 -0 -0 -0 -0 -0 -0 -0 -0 -0 -0 -0 -0 -0 -0 -0 -0 -0 -0 -0 -0 -0 -0 -0 -0 -0 -0 -0 -0 -0 -0 -0 -0 -0 -0 -0 -0 -0 -0 -0 -0 -0 -0 -0
-0 -0 -2 -14 -0 -2 -0 -0 -0 -0 -0 -0 -0 -0 -0 -0 -0 -0 -0 -0 -0 -0 -0 -0 -0 -0 -0 -0 -0 -0 -0 -0 -0 -0 -0 -0 -0 -0 -0 -0 -0 -0 -0 -0 -0 -0 -0 -0 -0 -0 -0 -0 -0 -0
-0 -3 -0 -0 -0 -0 -0 -0 -0 -0 -0 -0 -0 -0 -0 -0 -0 -0 -0 -0 -0 -0 -0 -0 -0 -0 -0 -0 -0 -0 -0 -0 -0 -0 -0 -0 -0 -0 -0 -0 -0 -0 -0 -0 -0 -0 -0 -0 -0 -0 -0 -0 -0 -0
-4 -0 -0 -0 -0 -0 -0 -0 -0 -0 -0 -0 -0 -0 -0 -0 -0 -0 -0 -0 -0 -0 -0 -0 -0 -0 -0 -0 -0 -0 -0 -0 -0 -0 -0 -0 -0 -0 -0 -0 -0 -0 -0 -0 -0 -0 -0 -0 -0 -0 -0 -0 -0 -0
-0 -0 -0 -0 -0 -0 -0 -0 -0 -0 -0 -0 -0 -0 -0 -0 -0 -0 -0 -0 -0 -0 -0 -0 -0 -0 -0 -0 -0 -0 -0 -0 -0 -0 -0 -0 -0 -0 -0 -0 -0 -0 -0 -0 -0 -0 -0 -1 -0 -1 -1 -1 -0 -0
-0 -0 -0 -0 -0 -0 -0 -0 -2 -0 -0 -0 -0 -0 -0 -0 -0 -0 -0 -0 -0 -0 -0 -0 -0 -0 -0 -0 -0 -0 -0 -0 -0 -0 -0 -0 -1 -0 -0 -0 -0 -0 -0 -0 -0 -1 -0 -1 -1 -1 -0 -1 -1 -0
-0 -0 -4 -5 -0 -4 -9 -7 -10 -3 -0 -0 -0 -0 -0 -0 -0 -0 -0 -0 -0 -0 -0 -0 -0 -0 -0 -0 -0 -0 -0 -0 -0 -0 -0 -0 -0 -0 -0 -0 -0 -0 -0 -0 -0 -1 -0 -0 -0 -0 -1 -1 -0 -1
-0 -0 -0 -0 -0 -0 -2 -5 -4 -3 -0 -0 -0 -0 -0 -0 -0 -0 -0 -0 -0 -0 -0 -0 -0 -0 -0 -0 -0 -0 -0 -0 -0 -0 -0 -0 -1 -0 -0 -0 -0 -0 -0 -0 -0 -0 -0 -0 -1 -1 -0 -0 -0 -0
-1 -0 -0 -0 -0 -0 -0 -1 -0 -0 -0 -0 -0 -0 -0 -0 -0 -0 -0 -0 -0 -0 -0 -0 -0 -0 -1 -0 -0 -0 -0 -0 -0 -1 -0 -0 -0 -0 -0 -0 -0 -0 -0 -0 -0 -1 -1 -0 -0 -0 -1 -1 -0 -0
-0 -0 -0 -0 -0 -1 -1 -5 -0 -0 -0 -0 -0 -0 -0 -0 -0 -0 -0 -0 -0 -0 -0 -0 -0 -0 -0 -0 -0 -0 -0 -0 -0 -1 -0 -0 -0 -1 -1 -0 -0 -0 -0 -0 -0 -1 -1 -1 -0 -0 -1 -0 -0 -0
-0 -0 -0 -0 -0 -0 -3 -0 -0 -0 -0 -0 -0 -0 -0 -0 -0 -0 -0 -0 -0 -0 -0 -0 -0 -0 -0 -0 -0 -0 -0 -0 -0 -1 -0 -0 -0 -1 -1 -0 -0 -0 -0 -0 -0 -0 -0 -0 -0 -0 -0 -0 -0 -0
-0 -0 -0 -0 -0 -2 -0 -0 -0 -0 -0 -0 -0 -0 -0 -0 -0 -0 -0 -0 -0 -0 -0 -0 -0 -0 -0 -0 -0 -0 -0 -0 -0 -0 -0 -1 -1 -1 -1 -0 -0 -0 -0 -0 -0 -0 -0 -0 -0 -0 -0 -0 -0 -0
-0 -0 -0 -1 -0 -0 -0 -0 -0 -0 -0 -0 -0 -0 -0 -0 -0 -0 -0 -0 -0 -0 -0 -0 -0 -0 -0 -0 -0 -0 -0 -0 -0 -1 -0 -0 -0 -1 -0 -0 -0 -0 -0 -0 -0 -0 -0 -0 -0 -0 -0 -0 -0 -0
-0 -2 -5 -0 -0 -0 -0 -0 -0 -0 -0 -0 -0 -0 -0 -0 -0 -0 -0 -0 -0 -0 -0 -0 -0 -0 -0 -0 -0 -0 -0 -0 -0 -0 -0 -0 -0 -0 -2 -2 -0 -0 -0 -0 -0 -0 -0 -0 -0 -0 -0 -0 -0 -0
-1 -1 -0 -4 -3 -0 -0 -0 -0 -0 -0 -0 -0 -0 -0 -0 -0 -0 -0 -0 -0 -0 -0 -0 -0 -0 -0 -0 -0 -0 -0 -0 -0 -0 -0 -0 -0 -0 -0 -0 -0 -1 -2 -2 -1 -0 -0 -0 -0 -0 -0 -0 -0 -0
-3 -0 -4 -0 -0 -0 -0 -0 -0 -0 -0 -0 -0 -1 -0 -0 -0 -0 -0 -0 -0 -0 -0 -0 -0 -0 -0 -0 -0 -0 -0 -0 -0 -2 -0 -0 -0 -0 -0 -1 -1 -0 -0 -6 -2 -0 -0 -0 -0 -0 -0 -0 -0 -0
-0 -0 -0 -0 -0 -0 -0 -0 -0 -0 -0 -0 -0 -0 -0 -0 -0 -0 -0 -0 -0 -0 -0 -0 -0 -0 -0 -0 -1 -0 -1 -1 -1 -0 -0 -0 -0 -0 -0 -0 -0 -0 -0 -11 -0 -0 -0 -0 -0 -0 -0 -0 -0 -0
-0 -0 -0 -0 -0 -0 -0 -0 -0 -0 -0 -0 -0 -0 -0 -0 -0 -0 -0 -0 -0 -0 -0 -0 -0 -0 -0 -0 -0 -0 -0 -0 -0 -0 -0 -0 -0 -0 -0 -0 -0 -0 -7 -21 -13 -4 -0 -0 -0 -0 -0 -1 -0 -1
-0 -0 -0 -0 -0 -0 -0 -0 -0 -0 -0 -0 -0 -0 -0 -0 -0 -0 -0 -0 -0 -0 -0 -0 -0 -0 -0 -0 -0 -0 -0 -0 -0 -0 -0 -0 -0 -0 -0 -0 -0 -0 -7 -4 -17 -0 -0 -0 -0 -0 -1 -1 -0 -0
-0 -0 -0 -0 -0 -0 -0 -0 -0 -0 -0 -0 -0 -0 -0 -0 -0 -0 -0 -0 -0 -0 -0 -0 -0 -0 -0 -0 -0 -0 -0 -0 -0 -0 -0 -0 -0 -0 -0 -0 -0 -3 -2 -2 -0 -0 -0 -0 -0 -1 -0 -0 -0 -0
-0 -0 -0 -0 -0 -0 -0 -0 -0 -0 -0 -0 -0 -0 -0 -0 -0 -0 -0 -0 -0 -0 -0 -0 -0 -0 -0 -0 -0 -0 -0 -0 -0 -0 -0 -0 -0 -0 -0 -0 -0 -0 -2 -4 -0 -0 -0 -0 -0 -1 -1 -1 -1 -0
-0 -0 -0 -0 -0 -0 -0 -0 -0 -0 -0 -0 -0 -0 -0 -0 -0 -0 -0 -0 -0 -0 -0 -0 -0 -0 -0 -0 -0 -0 -0 -0 -0 -0 -0 -0 -0 -0 -0 -2 -0 -0 -1 -3 -13 -0 -0 -0 -0 -0 -1 -1 -0 -0
-0 -0 -0 -0 -0 -0 -0 -0 -0 -0 -0 -0 -0 -0 -0 -0 -0 -0 -0 -0 -0 -0 -0 -0 -0 -0 -0 -0 -0 -0 -0 -0 -0 -0 -0 -0 -0 -0 -0 -0 -0 -0 -0 -0 -0 -0 -0 -0 -0 -1 -1 -0 -0 -0
-0 -0 -0 -0 -0 -0 -0 -0 -0 -0 -0 -0 -0 -0 -0 -0 -0 -0 -0 -0 -0 -0 -0 -0 -0 -0 -0 -0 -0 -0 -0 -0 -0 -0 -0 -0 -0 -0 -0 -1 -0 -0 -2 -0 -0 -20 -0 -0 -0 -1 -0 -0 -0 -0
-0 -0 -0 -0 -0 -0 -0 -0 -0 -0 -0 -0 -0 -0 -0 -0 -0 -0 -0 -0 -0 -0 -0 -0 -0 -0 -0 -0 -0 -0 -0 -0 -0 -0 -0 -0 -0 -0 -0 -0 -0 -0 -1 -4 -1 -12 -0 -0 -0 -0 -0 -0 -0 -0
-0 -0 -0 -0 -0 -0 -0 -0 -0 -0 -0 -0 -0 -0 -0 -0 -0 -0 -0 -0 -0 -0 -0 -0 -0 -0 -0 -0 -0 -0 -0 -0 -0 -0 -0 -0 -0 -0 -0 -0 -0 -0 -1 -0 -0 -0 -0 -0 -0 -0 -0 -0 -0 -0
-0 -0 -0 -0 -0 -0 -0 -0 -0 -0 -0 -0 -0 -0 -0 -0 -0 -0 -0 -0 -0 -0 -0 -0 -0 -0 -0 -0 -0 -0 -0 -0 -0 -0 -0 -0 -0 -0 -0 -0 -0 -0 -0 -0 -0 -0 -0 -0 -0 -0 -0 -0 -0 -0
-0 -0 -0 -0 -0 -0 -0 -0 -0 -0 -0 -0 -0 -0 -0 -0 -0 -0 -0 -0 -0 -0 -0 -0 -0 -0 -0 -0 -0 -0 -0 -0 -0 -0 -0 -0 -0 -0 -0 -0 -0 -0 -0 -0 -0 -0 -0 -0 -0 -0 -0 -0 -0 -0
-0 -0 -0 -0 -0 -0 -0 -0 -0 -0 -0 -0 -0 -0 -0 -0 -0 -0 -0 -0 -0 -0 -0 -0 -0 -0 -0 -0 -0 -0 -0 -0 -0 -0 -0 -0 -0 -0 -0 -0 -0 -0 -0 -0 -0 -0 -0 -0 -0 -0 -0 -0 -0 -0
-0 -0 -0 -0 -0 -0 -0 -0 -0 -0 -0 -0 -0 -0 -0 -0 -0 -0 -0 -0 -0 -0 -0 -0 -0 -0 -0 -0 -0 -0 -0 -0 -0 -0 -0 -0 -0 -0 -0 -0 -0 -0 -0 -0 -0 -0 -0 -0 -0 -0 -0 -0 -0 -0
-0 -0 -0 -0 -0 -0 -0 -0 -0 -0 -0 -0 -0 -0 -0 -0 -0 -0 -0 -0 -0 -0 -0 -0 -0 -0 -0 -0 -0 -0 -0 -0 -0 -0 -0 -0 -0 -0 -0 -0 -0 -0 -0 -0 -0 -0 -0 -0 -0 -0 -0 -0 -0 -0
-0 -0 -0 -0 -0 -0 -0 -0 -0 -0 -0 -0 -0 -0 -0 -0 -0 -0 -0 -0 -0 -0 -0 -0 -0 -0 -0 -0 -0 -0 -0 -0 -0 -0 -0 -0 -0 -0 -0 -0 -0 -0 -0 -0 -0 -0 -0 -0 -0 -0 -0 -0 -0 -0
Wind_Speed
31 27 27 27 25 23 22 21 20 19 17 16 14 12 10 11 9 12 11 13 11 9 7 9 7 4 3 3 3 2 6 11 11 12 13 15 15 13 15 14 14 12 11 13 10 18 20 13 15 13 22 18 18 15
28 27 27 26 25 23 22 20 19 17 15 14 12 10 9 9 8 8 8 7 7 6 6 6 6 9 9 8 4 2 13 9 9 11 12 14 14 13 14 18 10 14 12 15 8 17 19 17 16 20 21 19 19 20
29 27 26 25 23 22 21 20 18 16 14 12 10 8 7 7 8 8 6 6 5 2 3 4 6 10 10 11 11 8 12 10 10 14 11 14 16 13 16 17 16 13 12 13 18 20 19 21 24 24 22 23 25 23
28 26 25 23 22 21 20 19 18 15 13 11 9 7 5 4 5 6 6 8 5 3 6 7 10 10 14 13 12 13 9 10 9 12 15 16 16 14 17 19 18 19 14 16 20 26 26 23 24 32 30 28 28 26
27 26 24 23 22 21 20 18 17 15 12 10 8 7 5 4 3 2 3 8 9 8 8 5 6 13 13 11 11 11 9 9 12 15 17 16 16 17 18 21 21 14 17 18 20 28 30 31 35 35 32 30 29 29
26 24 24 23 21 20 19 17 16 14 13 10 8 7 6 5 4 4 6 9 10 7 6 7 10 12 11 10 10 12 13 14 15 16 17 16 17 16 20 22 19 16 19 21 26 30 29 31 32 35 37 36 33 32
26 24 22 21 20 19 19 17 16 15 13 11 9 6 4 2 5 7 9 9 10 9 9 7 10 13 12 12 13 14 15 15 16 16 16 17 16 15 20 23 17 20 23 27 26 28 30 32 38 40 40 39 35 32
25 23 22 21 21 20 19 18 17 15 13 12 10 10 8 5 1 6 9 9 9 9 11 11 13 11 12 12 13 15 15 16 16 16 16 17 17 17 22 17 19 21 25 25 27 29 29 31 33 37 40 43 41 37
24 22 22 22 21 20 19 19 18 16 15 14 12 6 2 7 9 8 8 9 9 12 12 14 11 14 10 12 13 14 15 17 17 17 17 16 17 19 19 17 20 24 25 26 28 27 28 31 34 37 39 41 42 41
22 22 21 21 20 20 20 20 20 19 17 12 5 8 8 10 3 9 12 13 15 16 15 14 11 12 10 11 14 13 16 16 19 17 16 17 20 18 17 19 20 21 22 23 27 30 31 34 37 38 38 38 37 36
21 20 20 20 21 21 22 22 21 19 11 10 9 10 5 9 11 13 13 14 14 15 14 12 11 9 13 12 13 16 16 17 20 18 17 19 21 17 16 18 19 21 23 25 27 29 31 33 37 38 38 37 37 36
21 21 21 22 23 24 23 22 20 12 12 10 3 5 8 12 13 13 14 14 15 15 12 10 10 12 12 14 14 15 18 17 21 15 18 22 21 16 17 18 20 23 25 28 29 31 32 34 35 36 36 37 37 38
22 23 23 23 24 24 23 18 10 9 8 7 7 10 13 14 14 14 13 15 14 11 9 6 9 12 12 14 15 16 17 19 16 18 22 22 18 19 20 22 25 26 27 28 31 32 34 36 36 36 37 37 38 38
23 22 22 23 22 20 16 14 11 9 8 11 11 10 14 13 14 15 13 10 9 6 4 6 10 13 14 15 16 18 17 16 20 21 21 19 21 23 25 26 27 30 30 32 34 35 36 37 38 37 36 37 39 40
22 21 20 19 17 16 15 10 6 9 10 11 12 13 14 11 9 6 5 5 6 6 7 9 13 15 16 17 17 17 18 20 19 22 21 23 24 26 29 31 31 33 33 34 35 37 38 39 41 42 40 41 41 40
22 18 15 17 16 13 10 7 9 9 11 12 13 11 5 4 4 4 5 6 9 9 11 14 16 17 18 17 17 18 21 23 22 22 24 27 29 31 33 33 33 34 36 38 37 37 38 39 41 43 44 43 42 41
12 11 16 15 13 9 7 8 9 10 12 13 12 7 9 3 4 6 7 10 11 13 16 16 17 17 16 18 19 20 23 23 23 27 30 32 34 37 37 36 37 38 41 40 39 37 38 39 39 41 43 43 43 42
14 15 14 13 11 8 9 10 11 12 13 11 9 8 9 7 5 8 10 11 13 14 15 16 16 17 19 21 21 22 24 26 29 32 34 36 37 37 37 39 40 40 40 38 35 34 34 36 39 40 40 40 39 39
13 12 11 10 8 8 11 12 12 12 12 10 7 7 7 7 9 9 10 12 13 13 14 16 18 18 19 20 24 26 28 30 33 34 35 36 36 39 40 39 39 39 36 34 32 33 34 34 36 36 37 38 39 38
12 9 7 5 8 9 11 12 11 10 10 10 7 7 8 9 9 9 10 12 13 15 17 18 18 18 20 21 22 25 28 31 33 36 38 38 38 40 40 39 38 36 34 31 30 30 32 34 34 35 36 37 35 36
8 6 3 5 7 9 10 10 11 10 8 9 6 8 9 9 10 11 12 13 15 17 18 17 17 18 18 20 22 26 29 31 34 36 39 41 40 40 40 38 36 33 31 30 30 31 31 32 34 35 35 35 33 30
6 4 4 7 8 10 11 12 9 8 10 6 6 9 10 12 12 13 13 15 17 17 16 17 18 19 21 24 25 26 30 31 34 37 38 38 40 41 41 38 36 35 32 29 29 29 30 31 31 32 33 32 29 29
3 6 7 9 9 12 9 9 9 10 10 8 8 11 13 13 13 12 17 17 18 17 17 19 21 21 24 26 28 29 29 33 38 41 41 41 40 39 36 35 34 34 31 29 27 26 27 29 30 31 31 29 29 30
5 7 9 11 11 11 8 10 9 9 8 10 12 14 14 15 14 17 20 20 19 18 19 21 22 25 27 29 32 33 34 36 41 42 39 39 38 36 34 35 33 30 29 27 25 23 25 27 29 29 29 29 29 30
7 11 11 11 10 9 9 9 10 11 12 12 13 15 16 15 19 21 22 23 20 21 22 22 24 27 31 34 37 38 35 38 40 40 38 35 36 37 36 35 32 29 26 24 21 21 24 26 28 28 28 28 29 30
10 12 12 10 9 10 10 12 12 12 12 14 15 16 17 19 23 25 22 21 21 21 22 24 28 32 36 38 40 41 42 38 37 37 36 35 35 36 37 37 34 29 25 20 17 20 23 25 26 26 26 27 28 29
11 10 10 10 9 8 10 11 11 13 15 17 16 17 19 23 25 24 21 20 22 21 22 25 29 34 38 38 37 35 35 33 32 32 33 33 33 31 31 31 28 23 19 16 14 18 21 25 24 24 25 27 28 27
10 8 7 8 10 12 11 12 14 16 17 16 16 20 23 23 25 23 24 25 25 28 29 30 32 33 34 33 33 34 31 28 28 29 30 30 27 28 26 27 24 17 12 11 13 17 19 21 22 23 26 28 29 27
10 7 8 11 13 14 15 15 16 17 15 16 21 24 25 24 26 29 31 31 31 34 38 39 38 33 31 31 28 25 26 27 29 34 37 38 37 34 30 30 27 22 17 14 13 14 17 20 22 24 25 26 26 27
9 10 13 14 15 17 17 14 18 18 18 21 24 27 29 30 31 29 32 34 36 36 35 35 34 32 31 28 25 25 24 24 25 28 32 35 36 35 33 27 21 18 14 12 11 14 16 18 21 23 25 26 26 27
11 12 15 15 18 19 20 21 22 23 25 27 26 31 36 37 35 30 30 28 28 28 28 27 24 22 22 23 24 26 26 22 27 30 30 31 30 30 28 25 20 17 14 12 13 15 17 20 23 24 25 26 26 27
13 14 17 20 22 21 22 25 26 27 28 29 29 25 27 29 32 28 22 23 23 23 22 22 22 22 21 21 22 23 23 26 29 31 33 33 33 32 29 26 24 21 17 15 16 18 19 21 22 23 24 24 25 26
16 17 19 23 24 25 25 26 28 29 27 28 27 25 24 24 23 19 19 20 21 22 21 20 20 21 20 21 21 22 25 27 29 29 30 30 29 29 27 25 24 23 21 20 20 19 20 21 21 22 22 23 24 26
Wind_Direction
163 164 167 170 171 173 172 175 180 185 189 194 199 208 206 216 225 251 261 273 280 292 283 289 288 266 276 283 275 280 318 313 316 317 322 327 328 331 332 336 340 342 345 343 348 339 343 12 10 358 353 356 353 347
163 163 166 170 172 173 175 174 175 179 184 188 193 200 199 210 231 250 257 281 303 299 288 299 310 298 296 310 315 257 315 320 323 328 326 332 330 333 332 330 340 333 337 341 346 341 346 353 341 339 338 334 329 324
161 157 163 168 171 171 173 174 175 175 176 177 180 182 191 212 242 256 242 264 290 302 337 314 308 301 309 311 313 305 306 319 324 325 334 329 324 331 326 327 330 332 335 336 335 336 336 337 332 330 330 332 332 328
157 159 161 163 167 169 171 171 168 167 167 170 175 182 193 207 234 240 241 264 281 293 302 295 294 303 305 309 317 311 321 323 332 328 324 322 321 330 326 326 326 329 338 334 325 324 331 337 340 332 332 330 327 326
150 149 149 152 154 159 163 164 164 163 163 163 166 174 190 186 160 164 263 278 279 290 294 287 316 303 305 318 322 331 332 324 316 317 317 319 324 325 326 323 319 325 331 330 332 329 329 329 329 330 331 330 327 326
146 151 152 151 152 156 161 161 162 159 158 159 162 163 159 167 206 238 268 280 284 293 314 295 305 305 318 330 331 325 320 317 313 315 318 324 325 325 323 323 332 337 334 334 328 328 331 332 334 333 330 328 326 324
143 149 153 153 153 156 161 160 155 152 151 149 146 147 160 192 252 270 272 265 269 290 303 313 309 304 309 317 320 320 318 314 315 319 320 321 324 328 323 320 337 334 330 329 332 334 332 336 334 336 335 334 330 325
144 149 155 150 149 151 154 156 155 151 146 139 129 117 106 99 30 299 295 278 278 292 305 309 310 310 307 312 314 313 310 313 318 321 325 322 329 326 321 330 334 336 334 334 336 336 338 339 342 343 343 342 339 335
147 151 151 146 147 148 148 150 150 145 139 131 123 119 253 271 273 276 287 295 306 298 305 308 302 299 312 315 318 315 315 314 322 316 319 327 325 321 329 333 336 335 336 335 338 342 342 342 342 344 346 348 347 345
149 149 148 148 150 151 148 141 139 137 133 135 203 256 258 260 273 275 288 289 293 301 310 306 313 305 313 313 313 319 319 318 313 319 330 325 324 330 337 338 339 344 346 346 343 341 341 341 342 343 344 346 347 350
147 149 152 152 149 147 144 141 138 135 150 223 254 268 234 266 278 293 293 293 299 301 308 308 311 311 312 310 314 317 318 318 311 320 321 327 330 338 342 343 344 344 343 342 340 339 338 338 337 337 339 341 344 344
143 141 141 141 142 143 142 141 141 196 225 243 233 238 272 287 294 292 292 298 300 294 312 306 308 314 316 318 320 321 314 319 313 333 325 323 333 343 344 343 343 341 339 338 338 337 337 337 337 336 337 338 337 336
139 138 136 134 134 136 139 151 176 140 141 233 277 283 288 288 288 283 282 288 291 308 312 317 317 320 325 326 324 321 316 315 333 323 322 330 342 343 342 341 337 338 337 336 336 336 336 335 336 336 335 336 335 333
136 137 136 136 137 140 148 140 150 217 259 276 281 277 286 292 289 290 291 295 313 328 338 332 322 321 327 323 323 318 322 327 321 321 325 338 338 338 337 338 335 332 332 331 330 331 332 333 333 334 334 333 330 328
136 136 138 142 144 147 143 166 230 256 278 282 286 282 284 295 311 324 334 345 330 331 329 330 327 325 321 319 321 322 322 320 325 326 332 336 337 335 331 329 328 328 327 327 327 327 327 329 329 328 329 328 326 325
131 134 150 147 147 152 165 212 258 275 287 284 290 290 297 313 319 333 332 329 324 325 328 324 318 316 317 321 320 318 319 320 328 332 334 332 329 328 327 327 326 325 325 323 323 324 325 326 327 326 326 326 326 325
155 183 143 148 157 174 215 252 275 284 282 287 284 296 293 318 307 309 317 317 323 317 312 318 316 317 326 320 319 326 323 328 331 329 328 328 327 327 326 325 324 324 323 323 322 322 323 325 326 327 326 327 327 327
144 142 142 148 167 199 245 270 276 280 279 279 273 282 290 300 309 312 317 324 321 320 321 319 327 319 319 319 322 329 330 329 327 327 328 328 328 328 327 325 324 324 323 323 323 324 327 329 329 330 331 331 331 331
144 148 151 158 192 227 259 274 284 282 283 288 293 301 308 314 325 333 335 334 337 338 333 329 324 322 323 328 327 328 328 329 329 329 330 330 330 328 327 326 325 326 327 327 328 329 331 332 332 334 334 335 333 334
133 139 153 185 234 261 275 282 292 298 284 292 299 303 309 313 323 328 333 332 332 331 326 324 324 331 331 333 335 334 333 333 332 330 330 331 333 332 331 330 328 328 328 329 330 332 333 334 336 336 337 337 337 338
156 199 199 237 277 298 297 292 298 304 304 296 304 310 313 321 321 322 323 328 326 325 323 331 334 335 339 338 337 337 335 334 331 330 329 328 330 332 333 333 332 330 327 327 328 330 333 334 335 337 338 338 339 339
210 207 241 289 294 304 305 307 305 312 306 301 301 312 312 306 313 318 327 321 322 326 330 332 332 334 333 332 333 334 332 333 331 328 327 326 325 326 327 329 329 327 327 327 327 329 331 335 338 339 340 340 341 339
188 245 286 299 298 304 296 311 304 310 298 290 309 309 310 314 320 328 320 322 324 325 326 327 327 330 326 330 330 329 332 329 328 327 326 326 324 323 323 324 324 323 322 322 324 326 330 333 336 338 339 341 340 338
270 286 291 296 303 297 296 296 307 310 313 301 301 309 310 316 325 319 317 319 322 328 326 326 328 327 327 328 328 329 330 329 327 326 328 327 326 326 326 324 323 320 320 318 318 322 327 330 333 336 338 338 339 337
280 289 299 296 307 297 293 295 298 305 301 303 305 311 316 320 315 315 316 318 317 320 323 327 328 327 326 325 326 328 332 330 328 327 328 330 329 328 326 326 324 321 321 319 319 321 324 328 331 333 335 337 335 335
290 297 297 297 297 298 298 291 298 302 305 306 309 315 317 315 313 314 321 325 325 325 326 326 327 325 324 325 325 327 329 333 330 327 328 332 332 330 328 328 327 323 320 319 320 324 326 327 330 332 336 334 334 336
300 298 303 308 312 313 311 314 311 308 305 306 310 311 313 311 312 318 327 330 328 328 331 330 327 324 323 324 326 328 331 332 330 329 332 334 335 334 333 332 329 325 324 322 321 325 327 326 329 333 334 332 333 336
302 300 294 306 310 314 313 311 308 307 309 313 314 308 310 311 315 324 325 328 328 327 325 324 324 323 322 324 326 328 331 336 335 336 336 338 344 345 346 347 346 342 332 324 326 329 329 328 330 331 331 328 328 334
296 308 310 309 313 312 311 311 310 312 319 314 310 309 311 316 319 319 321 325 325 321 319 319 320 324 324 326 329 334 336 339 339 337 336 336 339 342 348 347 350 354 354 346 341 336 332 329 330 330 329 329 331 332
299 309 310 312 312 310 315 318 317 320 320 316 316 314 314 315 317 323 321 320 319 319 320 321 323 323 324 327 333 337 340 343 344 343 340 339 338 339 340 344 349 352 357 357 353 348 341 339 336 334 333 331 331 330
317 309 313 314 315 317 319 319 318 317 317 316 316 311 311 316 320 325 323 324 325 327 329 333 337 340 338 337 338 338 339 345 343 343 345 345 346 346 346 346 351 355 357 358 352 344 339 336 334 334 333 331 331 330
313 314 315 312 317 323 324 320 319 318 320 320 320 324 323 323 323 332 344 346 345 343 343 343 343 342 344 344 343 343 341 340 340 341 343 346 348 348 350 350 352 357 0 358 351 345 340 337 335 335 334 334 333 327
317 319 320 320 322 323 324 322 321 321 322 322 324 326 327 329 331 343 351 354 351 352 354 356 356 354 354 352 350 347 343 341 341 344 347 349 350 349 350 350 350 350 350 348 345 344 341 341 340 339 339 336 330 322